Regional Weather Roundup
Issued by NWS Sioux Falls, SD

Home | Current Version | Previous Version | Graphics & Text | Print | Product List | Glossary Off
Versions: 1 2 3 4 5 6 7 8 9 10 11 12 13 14 15 16 17 18 19 20 21 22 23 24 25 26 27 28 29 30 31 32 33 34 35 36 37 38 39 40 41 42 43 44 45 46 47 48 49 50

000
ASUS43 KFSD 181910
RWRFSD

WEATHER ROUNDUP FOR SE SOUTH DAKOTA/SW MINNESOTA/NW IOWA
NATIONAL WEATHER SERVICE SIOUX FALLS SD
100 PM CST SUN FEB 18 2018

NOTE: "FAIR" INDICATES FEW OR NO CLOUDS BELOW 12,000 FEET WITH NO
SIGNIFICANT WEATHER AND OR OBSTRUCTIONS TO VISIBILITY.


SDZ038>040-050-052>070-182000-
SOUTHEAST SOUTH DAKOTA

CITY           SKY/WX    TMP DP  RH WIND       PRES   REMARKS
BROOKINGS      CLOUDY    42  29  59 SW15      29.50S
CHAMBERLAIN    CLOUDY    33  28  81 W23G29    29.57R WCI  20
HURON          CLOUDY    34  27  75 NW14      29.53R WCI  25
MADISON        FAIR      43  32  65 SW21      29.50F
MITCHELL       CLOUDY    43  29  57 W14G22    29.53R
SIOUX FALLS    CLOUDY    43  29  57 S22G29    29.54F
WINNER         FAIR      35  26  69 NW25G31   29.56F WCI  23
YANKTON        CLOUDY    46  28  49 S12       29.56F
$$

MNZ071-072-080-081-089-090-097-098-182000-
SOUTHWEST MINNESOTA

CITY           SKY/WX    TMP DP  RH WIND       PRES   REMARKS
FAIRMONT       MOSUNNY   40  32  73 S21       29.63R
JACKSON        CLOUDY    41  30  65 S24       29.59F
LUVERNE        CLOUDY    39  30  70 SW18      29.56F
MARSHALL       CLOUDY    45  27  49 SW22G31   29.51S
MONTEVIDEO     CLOUDY    46  28  49 W7        29.52F
PIPESTONE      CLOUDY    43  28  56 SW21G33   29.51F
REDWOOD FALLS  CLOUDY    43  28  55 SW23G40   29.56F
TRACY          CLOUDY    43  30  61 SW26G36   29.51S
WINDOM         CLOUDY    43  21  42 S18G25    29.57F
WORTHINGTON    CLOUDY    40  29  64 S26G37    29.55F
$$

IAZ001>003-012>014-020>022-031-032-NEZ013-014-SDZ071-182000-
NORTHWEST IOWA

CITY           SKY/WX    TMP DP  RH WIND       PRES   REMARKS
CHEROKEE       MOSUNNY   45  32  61 S25G31    29.59F
DENISON        CLOUDY    48  28  46 S31G48    29.64F
ESTHERVILLE    CLOUDY    39  32  76 SW18      29.63R
LE MARS        CLOUDY    43  32  65 SW14G33   29.60R
ORANGE CITY    CLOUDY    41  34  75 SW13G21   29.61R
SHELDON        CLOUDY    41  30  65 S17G24    29.58F
SIOUX CITY     CLOUDY    44  31  60 S22G29    29.59F
SPENCER        CLOUDY    41  32  70 SW14G30   29.62R
STORM LAKE     CLOUDY    43  32  65 S23G32    29.61S
$$

ABBREVIATIONS USED IN REMARKS
   TC - TEMPERATURE IN CELSIUS
  WCI - WIND CHILL INDEX
   HX - HEAT INDEX
  VSB - VISIBILITY




USA.gov is the U.S. government's official web portal to all federal, state and local government web resources and services.